User: anonymous
Location: Brno
(49.2000°N, 16.6330°E)
Time: 06:19:51
(UTC+02:00)
Language:

Cosmos 1459 Rocket - Orbit

View from above orbital plane
View from above orbital plane
View from above satellite
View from above satellite

Ground track
Ground track

The orbit data is extracted from the following two-line orbital elements,

1 14059U 83042B   14265.06984630  .00000003  00000-0 -12296-4 0  3936
2 14059 082.9690 083.4467 0042752 190.9867 305.6356 13.78463259578104
Epoch (UTC): 22 September 2014 01:40:34
Eccentricity: 0.0042752
inclination: 82.9690°
perigee height: 938 km
apogee height: 1001 km
right ascension of ascending node: 83.4467°
argument of perigee: 190.9867°
revolutions per day: 13.78463259
mean anomaly at epoch: 305.6356°
orbit number at epoch: 57810

The dashed part of the orbit path shows where the satellite is in the earth's shadow,  

DLR